Location: Qazi Observatory
(41.6337°N, 88.1517°W)
Time: 11:07:31
(UTC-05:00)

Amateur Radio Satellites - All Passes

Search period start: 01 September 2015 10:37
Search period end: 02 September 2015 10:37
Location: Qazi Observatory, 41.6337°N, 88.1517°W

Satellite Date Start Highest point End Downlink Frequencies (MHz)
Time Altitude Azimuth
QB50P1 01 Sep 10:37:38 10:41:22 32° 70° (ENE) 10:45:12 145.935-145.965
HO-68 01 Sep 10:40:02 10:46:44 42° 295° (WNW) 10:53:20 435.675
Cosmos 2504 01 Sep 10:40:45 10:49:18 74° 80° (E) 10:57:18 435.465 / 435.565
HUMSAT D 01 Sep 10:47:32 10:51:18 31° 95° (E) 10:55:02 437.325/437.525
SEEDS 01 Sep 10:51:00 10:53:52 18° 293° (WNW) 10:56:35 437.485
DX 1 01 Sep 10:51:54 10:55:02 19° 93° (E) 10:58:16 434.975-435.025
DANDE 01 Sep 10:56:20 11:03:39 52° 75° (ENE) 11:11:56 436.750
Oscar 11 01 Sep 10:58:17 11:02:27 47° 287° (WNW) 11:06:34 145.826/435.025
UKube-1 01 Sep 11:03:28 11:06:53 23° 94° (E) 11:10:23 .
TIGRISAT 01 Sep 11:03:56 11:08:29 50° 261° (W) 11:13:05 435.000
ESTCUBE 1 01 Sep 11:05:35 11:07:40 13° 89° (E) 11:09:59 437.505/2401.250
PHONESAT 2.4 01 Sep 11:05:39 11:08:09 19° 208° (SSW) 11:10:36 2401.200-2431.200
PCSat 01 Sep 11:06:29 11:11:56 76° 59° (ENE) 11:17:22 145.827
COMPASS 1 01 Sep 11:12:43 11:14:49 13° 295° (WNW) 11:16:43 437.405
Cosmos 2491 01 Sep 11:14:42 11:21:35 24° 297° (WNW) 11:28:10 435.465 / 435.565
CUBEBUG 1 01 Sep 11:15:43 11:17:55 14° 89° (E) 11:20:21 437.445
AISAT 01 Sep 11:15:45 11:19:20 24° 94° (E) 11:23:00 437.250
ISS 01 Sep 11:18:04 11:20:19 17° 348° (NNW) 11:22:32 145.825
ANTELSAT 01 Sep 11:21:43 11:25:56 32° 265° (W) 11:30:09 437.575/2403.000
AAUSAT CUBESAT 2 01 Sep 11:22:44 11:24:31 12° 295° (WNW) 11:26:06 437.432
SO-50 01 Sep 11:27:56 11:31:15 18° 250° (WSW) 11:34:20 436.795
AUBIESAT-1 01 Sep 11:33:48 11:37:35 23° 262° (W) 11:41:14 437.475
POLYITAN 1 01 Sep 11:38:54 11:43:04 51° 261° (W) 11:47:17 437.675
M-CUBED/EXP-1 PRIME 01 Sep 11:40:18 11:43:36 18° 264° (W) 11:46:42 437.505
DUCHIFAT 1 01 Sep 11:41:16 11:45:23 51° 260° (W) 11:49:34 145.980
POPSAT HIP 1 01 Sep 11:41:19 11:45:27 49° 260° (W) 11:49:38 437.405
DELFI C3 01 Sep 11:41:39 11:44:50 23° 291° (WNW) 11:47:55 145.870
ZACube-1 01 Sep 11:42:59 11:46:46 26° 292° (WNW) 11:50:24 437.345
VELOX 1 01 Sep 11:43:19 11:47:36 44° 99° (E) 11:51:53 145.980
CUBEBUG 2 01 Sep 11:46:00 11:49:02 17° 296° (WNW) 11:51:51 437.445
BUGSAT 1 01 Sep 11:46:25 11:50:29 72° 259° (W) 11:54:36 437.445
FUNcube-1 01 Sep 11:48:14 11:51:52 24° 292° (WNW) 11:55:21 145.935
UWE-3 01 Sep 11:51:41 11:54:49 18° 295° (WNW) 11:57:46 435.000/436.395/437.385
QB50P2 01 Sep 11:58:54 12:02:42 30° 264° (W) 12:06:30 145.880/145.840
NANOSAT C BR1 01 Sep 11:59:26 12:03:14 31° 264° (W) 12:07:03 145.865
CUSAT 1 01 Sep 12:07:42 12:15:03 44° 268° (W) 12:22:38 437.405
QB50P1 01 Sep 12:13:55 12:17:18 22° 267° (W) 12:20:37 145.935-145.965
50 SAT 01 Sep 12:15:46 12:19:35 57° 286° (WNW) 12:23:20 437.505
HUMSAT D 01 Sep 12:23:31 12:26:52 23° 292° (WNW) 12:30:07 437.325/437.525
DX 1 01 Sep 12:27:21 12:31:27 38° 289° (WNW) 12:35:30 434.975-435.025
Cosmos 2504 01 Sep 12:34:22 12:40:39 23° 279° (W) 12:46:22 435.465 / 435.565
UKube-1 01 Sep 12:39:11 12:43:04 32° 290° (WNW) 12:46:54 .
DANDE 01 Sep 12:39:44 12:46:42 37° 269° (W) 12:54:11 436.750
ESTCUBE 1 01 Sep 12:40:32 12:44:59 58° 286° (WNW) 12:49:24 437.505/2401.250
SPROUT 01 Sep 12:43:33 12:47:37 38° 97° (E) 12:51:41 437.525
CUBEBUG 1 01 Sep 12:50:20 12:54:40 54° 287° (WNW) 12:58:59 437.445
PCSat 01 Sep 12:51:45 12:54:46 15° 255° (WSW) 12:57:32 145.827
AISAT 01 Sep 12:51:55 12:55:59 33° 290° (WNW) 12:59:57 437.250
ISS 01 Sep 12:55:38 12:57:40 15° 8° (N) 12:59:42 145.825
Oscar 19 01 Sep 12:58:19 13:03:11 45° 71° (ENE) 13:08:09 437.125/150
JAS-2 01 Sep 13:06:49 13:11:05 17° 55° (NE) 13:15:45 435.910
GONETS M04 01 Sep 13:15:01 13:23:01 38° 70° (ENE) 13:31:08
VELOX 1 01 Sep 13:20:42 13:23:51 19° 294° (WNW) 13:26:52 145.980
AO-7 01 Sep 13:25:50 13:28:56 13° 45° (NE) 13:32:27 29.400- 29.500
SWISSCUBE 01 Sep 13:41:56 13:45:03 18° 91° (E) 13:48:19 437.505
Cosmos 2499 01 Sep 13:42:15 13:46:30 15° 55° (NE) 13:51:09 435.465 / 435.565
Gurwin Techsat 1B 01 Sep 13:44:30 13:49:21 39° 69° (ENE) 13:54:17 435.225
TISAT 1 01 Sep 13:44:54 13:49:11 77° 286° (WNW) 13:53:28 437.305
BEESAT 3 01 Sep 13:50:07 13:51:14 11° 109° (ESE) 13:52:36 437.485
ITAMSAT 1 01 Sep 13:58:39 14:03:29 43° 70° (ENE) 14:08:23 435.822/435.867
BEESAT 2 01 Sep 14:02:57 14:04:18 12° 110° (ESE) 14:05:52 435.950
ITUPSAT 1 01 Sep 14:19:50 14:24:16 38° 98° (E) 14:28:43 437.325
SPROUT 01 Sep 14:20:15 14:23:26 20° 293° (WNW) 14:26:31 437.525
ISS 01 Sep 14:31:39 14:34:44 39° 27° (NNE) 14:37:49 145.825
RS-15 01 Sep 14:38:14 14:45:29 22° 102° (ESE) 14:53:29 29.354- 29.394
Oscar 19 01 Sep 14:38:45 14:42:48 22° 268° (W) 14:46:45 437.125/150
JAS-2 01 Sep 14:47:18 14:54:57 72° 73° (ENE) 15:02:48 435.910
BEESAT 01 Sep 14:52:23 14:57:10 84° 101° (E) 15:01:57 436.000
GONETS M04 01 Sep 15:11:44 15:20:07 49° 270° (W) 15:28:24
AO-7 01 Sep 15:12:03 15:20:04 55° 65° (ENE) 15:28:08 29.400- 29.500
SWISSCUBE 01 Sep 15:18:38 15:23:14 49° 288° (WNW) 15:27:47 437.505
BEESAT 3 01 Sep 15:24:38 15:28:40 67° 304° (NW) 15:32:45 437.485
Gurwin Techsat 1B 01 Sep 15:24:58 15:29:28 27° 266° (W) 15:33:54 435.225
STARS 01 Sep 15:32:00 15:35:22 21° 93° (E) 15:38:49 437.465
Cosmos 2499 01 Sep 15:33:02 15:41:43 72° 79° (E) 15:49:48 435.465 / 435.565
BEESAT 2 01 Sep 15:37:47 15:41:51 66° 305° (NW) 15:45:58 435.950
ITAMSAT 1 01 Sep 15:39:03 15:43:12 23° 267° (W) 15:47:15 435.822/435.867
KKS-1 01 Sep 15:51:45 15:56:12 59° 101° (E) 16:00:37 437.445
ITUPSAT 1 01 Sep 15:58:10 16:01:58 24° 294° (WNW) 16:05:40 437.325
HORYU 2 01 Sep 16:01:26 16:05:56 87° 71° (ENE) 16:10:28 437.375
ISS 01 Sep 16:08:16 16:11:04 26° 224° (SW) 16:13:48 145.825
MOZHAYETS 4 01 Sep 16:10:58 16:13:17 14° 89° (E) 16:15:47
AIST 2 01 Sep 16:19:04 16:23:17 68° 120° (ESE) 16:27:31 435.215
BEESAT 01 Sep 16:32:39 16:34:24 12° 299° (WNW) 16:35:54 436.000
JAS-2 01 Sep 16:34:27 16:40:39 25° 272° (W) 16:46:43 435.910
RS-15 01 Sep 16:45:30 16:56:26 89° 130° (SE) 17:07:54 29.354- 29.394
AO-7 01 Sep 17:05:42 17:13:12 35° 264° (W) 17:20:34 29.400- 29.500
BEESAT 3 01 Sep 17:06:50 17:07:25 10° 325° (NW) 17:07:52 437.485
STARS 01 Sep 17:07:50 17:11:56 36° 290° (WNW) 17:15:58 437.465
BEESAT 2 01 Sep 17:20:14 17:20:45 10° 325° (NW) 17:21:06 435.950
Cubesat XI-IV 01 Sep 17:23:34 17:27:57 28° 66° (ENE) 17:32:27 437.490
Cosmos 2499 01 Sep 17:27:30 17:34:04 24° 279° (W) 17:40:02 435.465 / 435.565
KKS-1 01 Sep 17:29:50 17:32:23 15° 296° (WNW) 17:34:47 437.445
MOZHAYETS 4 01 Sep 17:46:27 17:50:56 56° 286° (WNW) 17:55:23
AIST 2 01 Sep 17:59:33 18:02:19 16° 319° (NW) 18:04:59 435.215
CUBESAT XI-V 01 Sep 18:06:05 18:09:31 21° 92° (E) 18:13:05 437.345
CUTE-I 01 Sep 18:07:15 18:12:30 66° 74° (ENE) 18:17:47 437.470
AIST 1 01 Sep 18:28:08 18:31:20 20° 71° (ENE) 18:34:38
BRITE-PL 01 Sep 18:34:43 18:37:42 18° 64° (ENE) 18:41:00 437.365/2234.400
O/OREOS (USA 219) 01 Sep 18:51:59 18:56:23 53° 108° (ESE) 19:00:52 437.305
GOMX 1 01 Sep 18:58:52 19:02:06 20° 65° (ENE) 19:05:38 467.674
RS-15 01 Sep 19:00:47 19:10:36 33° 330° (NNW) 19:20:40 29.354- 29.394
Cubesat XI-IV 01 Sep 19:02:56 19:07:54 39° 263° (W) 19:12:52 437.490
DOVE 4 01 Sep 19:08:40 19:11:23 16° 63° (ENE) 19:14:22 437.250
HO-68 01 Sep 19:21:36 19:27:36 31° 62° (ENE) 19:33:45 435.675
Cosmos 2491 01 Sep 19:25:21 19:33:16 38° 70° (ENE) 19:41:19 435.465 / 435.565
CUTE 1.7 + AOD 2 01 Sep 19:33:47 19:36:30 17° 66° (ENE) 19:39:22 437.475
YUBILEINY 01 Sep 19:36:28 19:41:13 17° 78° (ENE) 19:46:32 435.215
CUBESAT XI-V 01 Sep 19:42:48 19:47:08 40° 289° (WNW) 19:51:27 437.345
PRISM 01 Sep 19:45:06 19:48:53 35° 98° (E) 19:52:41 437.425
CANX-2 01 Sep 19:47:02 19:50:33 26° 69° (ENE) 19:54:09 2200.000
CINEMA 3 01 Sep 19:47:08 19:50:08 17° 64° (ENE) 19:53:21 145.822/145.860
CUTE-I 01 Sep 19:49:56 19:53:09 15° 271° (W) 19:56:08 437.470
STRAND 1 01 Sep 19:53:59 19:59:05 65° 102° (ESE) 20:04:10 437.568
AIST 1 01 Sep 20:05:10 20:09:05 33° 269° (W) 20:12:59
SEEDS 01 Sep 20:06:37 20:10:17 30° 70° (ENE) 20:14:01 437.485
BRITE-PL 01 Sep 20:11:41 20:15:53 45° 263° (W) 20:20:24 437.365/2234.400
Oscar 11 01 Sep 20:19:22 20:21:21 13° 64° (ENE) 20:23:31 145.826/435.025
COMPASS 1 01 Sep 20:26:40 20:30:33 38° 72° (ENE) 20:34:29 437.405
O/OREOS (USA 219) 01 Sep 20:33:07 20:36:13 17° 307° (NW) 20:39:14 437.305
GOMX 1 01 Sep 20:35:33 20:39:53 45° 263° (W) 20:44:32 467.674
AAUSAT CUBESAT 2 01 Sep 20:35:57 20:39:53 41° 73° (ENE) 20:43:50 437.432
DOVE 4 01 Sep 20:44:02 20:48:35 62° 261° (W) 20:53:29 437.250
DELFI C3 01 Sep 20:54:15 20:57:01 19° 68° (ENE) 20:59:54 145.870
ZACube-1 01 Sep 21:02:38 21:06:21 26° 68° (ENE) 21:10:11 437.345
CUBEBUG 2 01 Sep 21:06:05 21:10:31 46° 72° (ENE) 21:15:05 437.445
FUNcube-1 01 Sep 21:07:26 21:11:15 28° 69° (ENE) 21:15:11 145.935
CUTE 1.7 + AOD 2 01 Sep 21:08:00 21:12:06 44° 262° (W) 21:16:13 437.475
HO-68 01 Sep 21:08:02 21:15:02 54° 259° (W) 21:22:03 435.675
UWE-3 01 Sep 21:11:05 21:15:23 41° 71° (ENE) 21:19:48 435.000/436.395/437.385
RS-15 01 Sep 21:19:30 21:27:52 22° 4° (N) 21:36:34 29.354- 29.394
PRISM 01 Sep 21:21:06 21:24:06 19° 293° (WNW) 21:27:00 437.425
Cosmos 2491 01 Sep 21:22:04 21:30:24 49° 270° (W) 21:38:38 435.465 / 435.565
CINEMA 3 01 Sep 21:22:13 21:26:51 57° 261° (W) 21:31:42 145.822/145.860
CANX-2 01 Sep 21:22:41 21:26:25 28° 265° (W) 21:30:05 2200.000
YUBILEINY 01 Sep 21:28:05 21:36:52 86° 97° (E) 21:45:46 435.215
STRAND 1 01 Sep 21:34:35 21:37:49 17° 298° (WNW) 21:40:52 437.568
HUMSAT D 01 Sep 21:39:30 21:42:56 24° 68° (ENE) 21:46:27 437.325/437.525
SEEDS 01 Sep 21:42:38 21:46:06 23° 267° (W) 21:49:29 437.485
DX 1 01 Sep 21:48:09 21:51:03 18° 66° (ENE) 21:54:06 434.975-435.025
Oscar 11 01 Sep 21:52:45 21:57:04 62° 259° (W) 22:01:23 145.826/435.025
UKube-1 01 Sep 21:58:46 22:01:57 21° 67° (ENE) 22:05:15 .
COMPASS 1 01 Sep 22:03:26 22:06:23 18° 269° (W) 22:09:13 437.405
ESTCUBE 1 01 Sep 22:05:57 22:08:08 14° 64° (ENE) 22:10:31 437.505/2401.250
BEESAT 3 01 Sep 22:07:10 22:08:10 11° 36° (NE) 22:09:18 437.485
AAUSAT CUBESAT 2 01 Sep 22:12:55 22:15:41 17° 269° (W) 22:18:19 437.432
CUBEBUG 1 01 Sep 22:12:57 22:14:46 13° 63° (ENE) 22:16:46 437.445
AISAT 01 Sep 22:13:57 22:17:20 22° 67° (ENE) 22:20:49 437.250
BEESAT 2 01 Sep 22:20:35 22:21:51 11° 36° (NE) 22:23:14 435.950
DELFI C3 01 Sep 22:28:06 22:31:51 35° 263° (W) 22:35:35 145.870
UNISAT 6 01 Sep 22:28:26 22:31:27 18° 90° (E) 22:34:34 437.425
ZACube-1 01 Sep 22:38:28 22:42:35 32° 265° (W) 22:46:42 437.345
VELOX 1 01 Sep 22:41:01 22:45:07 40° 71° (ENE) 22:49:16 145.980
FUNcube-1 01 Sep 22:43:29 22:47:29 29° 265° (W) 22:51:30 145.935
CUBEBUG 2 01 Sep 22:44:10 22:47:29 18° 270° (W) 22:50:42 437.445
UWE-3 01 Sep 22:48:36 22:52:06 21° 269° (W) 22:55:32 435.000/436.395/437.385
TIGRISAT 01 Sep 22:55:46 22:59:53 33° 96° (E) 23:03:56 435.000
50 SAT 01 Sep 22:58:44 23:02:41 77° 77° (ENE) 23:06:39 437.505
Cosmos 2504 01 Sep 23:10:00 23:17:52 57° 91° (E) 23:26:13 435.465 / 435.565
ANTELSAT 01 Sep 23:13:06 23:17:35 53° 100° (E) 23:21:56 437.575/2403.000
AUBIESAT-1 01 Sep 23:14:06 23:17:15 24° 98° (E) 23:20:16 437.475
HUMSAT D 01 Sep 23:14:40 23:18:32 31° 265° (W) 23:22:22 437.325/437.525
M-CUBED/EXP-1 PRIME 01 Sep 23:20:14 23:23:51 35° 101° (E) 23:27:13 437.505
DX 1 01 Sep 23:22:54 23:27:01 42° 261° (W) 23:31:09 434.975-435.025
POLYITAN 1 01 Sep 23:24:25 23:27:58 25° 94° (E) 23:31:33 437.675
DUCHIFAT 1 01 Sep 23:26:02 23:29:31 24° 94° (E) 23:33:02 145.980
POPSAT HIP 1 01 Sep 23:26:32 23:30:06 25° 94° (E) 23:33:43 437.405
YUBILEINY 01 Sep 23:28:37 23:35:04 21° 299° (WNW) 23:41:11 435.215
BUGSAT 1 01 Sep 23:29:20 23:32:00 17° 91° (E) 23:34:49 437.445
CUSAT 1 01 Sep 23:33:26 23:36:51 28° 87° (E) 23:41:16 437.405
UKube-1 01 Sep 23:33:54 23:37:53 35° 263° (W) 23:41:52 .
RS-15 01 Sep 23:34:07 23:44:49 40° 36° (NE) 23:56:04 29.354- 29.394
SPROUT 01 Sep 23:37:55 23:41:40 31° 70° (ENE) 23:45:30 437.525
ESTCUBE 1 01 Sep 23:40:06 23:44:33 62° 259° (W) 23:49:00 437.505/2401.250
BEESAT 3 01 Sep 23:42:48 23:46:51 75° 56° (NE) 23:50:49 437.485
QB50P2 01 Sep 23:43:27 23:47:31 41° 98° (E) 23:51:35 145.880/145.840
NANOSAT C BR1 01 Sep 23:43:35 23:47:36 39° 98° (E) 23:51:37 145.865
CUBEBUG 1 01 Sep 23:46:21 23:50:39 64° 260° (W) 23:54:57 437.445
AISAT 01 Sep 23:49:41 23:53:44 34° 263° (W) 23:57:47 437.250
BEESAT 2 01 Sep 23:56:33 00:00:38 79° 57° (ENE) 00:04:38 435.950
QB50P1 01 Sep 23:57:36 00:01:51 57° 100° (E) 00:06:04 145.935-145.965
SO-50 02 Sep 00:02:04 00:05:15 18° 111° (ESE) 00:08:39 436.795
UNISAT 6 02 Sep 00:04:09 00:08:31 44° 288° (WNW) 00:12:44 437.425
DANDE 02 Sep 00:09:45 00:13:01 36° 91° (E) 00:17:19 436.750
VELOX 1 02 Sep 00:18:43 00:21:52 19° 268° (W) 00:24:54 145.980
BEESAT 02 Sep 00:24:50 00:26:25 12° 61° (ENE) 00:28:15 436.000
TIGRISAT 02 Sep 00:32:46 00:36:29 24° 293° (WNW) 00:40:01 435.000
TISAT 1 02 Sep 00:36:47 00:40:59 80° 76° (ENE) 00:45:15 437.305
AIST 2 02 Sep 00:40:39 00:44:42 46° 52° (NE) 00:48:42 435.215
AUBIESAT-1 02 Sep 00:48:44 00:51:56 24° 298° (WNW) 00:54:53 437.475
SWISSCUBE 02 Sep 00:48:44 00:52:18 22° 66° (ENE) 00:55:59 437.505
ANTELSAT 02 Sep 00:51:04 00:53:56 16° 296° (WNW) 00:56:36 437.575/2403.000
M-CUBED/EXP-1 PRIME 02 Sep 00:55:37 00:58:23 18° 300° (WNW) 01:00:55 437.505
POLYITAN 1 02 Sep 01:00:05 01:03:51 29° 291° (WNW) 01:07:31 437.675
DUCHIFAT 1 02 Sep 01:01:34 01:05:19 29° 290° (WNW) 01:08:59 145.980
POPSAT HIP 1 02 Sep 01:02:14 01:05:57 28° 291° (WNW) 01:09:35 437.405
Cosmos 2504 02 Sep 01:03:17 01:10:34 32° 292° (WNW) 01:18:00 435.465 / 435.565
BUGSAT 1 02 Sep 01:03:39 01:07:42 43° 288° (WNW) 01:11:44 437.445
Oscar 19 02 Sep 01:10:57 01:13:52 16° 89° (E) 01:17:02 437.125/150
SPROUT 02 Sep 01:14:17 01:17:47 23° 267° (W) 01:21:12 437.525
CUSAT 1 02 Sep 01:15:50 01:19:25 26° 295° (WNW) 01:23:49 437.405
NANOSAT C BR1 02 Sep 01:20:04 01:23:11 19° 293° (WNW) 01:26:10 145.865
QB50P2 02 Sep 01:20:06 01:23:08 18° 294° (WNW) 01:26:02 145.880/145.840
ITUPSAT 1 02 Sep 01:26:44 01:31:16 45° 71° (ENE) 01:35:50 437.325
QB50P1 02 Sep 01:34:59 01:37:16 14° 296° (WNW) 01:39:22 145.935-145.965
SO-50 02 Sep 01:40:39 01:45:23 57° 307° (NW) 01:50:16 436.795
RS-15 02 Sep 01:46:39 01:58:31 77° 241° (WSW) 02:10:43 29.354- 29.394
PCSat 02 Sep 01:48:05 01:53:26 68° 116° (ESE) 01:58:51 145.827
DANDE 02 Sep 01:54:11 01:56:42 16° 301° (WNW) 01:59:27 436.750
BEESAT 02 Sep 01:58:53 02:03:39 84° 257° (WSW) 02:08:27 436.000
Gurwin Techsat 1B 02 Sep 02:01:46 02:04:33 15° 88° (E) 02:07:35 435.225
ITAMSAT 1 02 Sep 02:12:39 02:15:19 15° 89° (E) 02:18:15 435.822/435.867
GONETS M04 02 Sep 02:16:28 02:24:21 42° 88° (E) 02:32:25
AIST 2 02 Sep 02:20:10 02:22:56 17° 249° (WSW) 02:25:33 435.215
SWISSCUBE 02 Sep 02:25:25 02:29:55 41° 262° (W) 02:34:26 437.505
STARS 02 Sep 02:29:21 02:32:32 20° 66° (ENE) 02:35:52 437.465
VERMONT LUNAR 02 Sep 02:42:41 02:44:36 16° 153° (SSE) 02:46:35 437.305
Oscar 19 02 Sep 02:48:36 02:53:47 64° 286° (WNW) 02:58:53 437.125/150
KKS-1 02 Sep 02:49:53 02:54:13 55° 73° (ENE) 02:58:37 437.445
ITUPSAT 1 02 Sep 03:05:58 03:09:25 19° 268° (W) 03:12:44 437.325
MOZHAYETS 4 02 Sep 03:13:27 03:16:00 15° 64° (ENE) 03:18:42
AO-7 02 Sep 03:15:39 03:19:44 15° 86° (E) 03:24:23 29.400- 29.500
O/OREOS (USA 219) 02 Sep 03:24:04 03:26:13 13° 49° (NE) 03:28:33 437.305
SO-50 02 Sep 03:25:06 03:27:05 12° 329° (NNW) 03:28:54 436.795
PCSat 02 Sep 03:33:17 03:37:25 21° 316° (NW) 03:41:27 145.827
Gurwin Techsat 1B 02 Sep 03:39:50 03:45:08 70° 287° (WNW) 03:50:25 435.225
JAS-2 02 Sep 03:43:05 03:50:00 62° 99° (E) 03:56:04 435.910
ITAMSAT 1 02 Sep 03:50:15 03:55:25 68° 287° (WNW) 04:00:34 435.822/435.867
HORYU 2 02 Sep 03:53:41 03:56:25 16° 91° (E) 03:59:18 437.375
RS-15 02 Sep 04:01:49 04:09:26 18° 260° (W) 04:16:16 29.354- 29.394
STARS 02 Sep 04:04:36 04:08:45 39° 262° (W) 04:12:55 437.465
Cosmos 2499 02 Sep 04:08:12 04:16:24 58° 91° (E) 04:25:05 435.465 / 435.565
GONETS M04 02 Sep 04:13:04 04:21:14 43° 288° (WNW) 04:29:24
VERMONT LUNAR 02 Sep 04:17:45 04:20:40 51° 168° (SSE) 04:23:35 437.305
KKS-1 02 Sep 04:28:48 04:31:16 14° 271° (W) 04:33:32 437.445
MOZHAYETS 4 02 Sep 04:48:14 04:52:47 59° 260° (W) 04:57:21
O/OREOS (USA 219) 02 Sep 05:01:41 05:06:19 77° 249° (WSW) 05:10:53 437.305
AO-7 02 Sep 05:05:39 05:14:00 80° 106° (ESE) 05:22:18 29.400- 29.500
CUBESAT XI-V 02 Sep 05:10:00 05:13:24 21° 67° (ENE) 05:16:54 437.345
PHONESAT 2.4 02 Sep 05:26:30 05:29:27 27° 157° (SSE) 05:32:25 2401.200-2431.200
JAS-2 02 Sep 05:28:57 05:34:29 25° 300° (WNW) 05:39:23 435.910
HORYU 2 02 Sep 05:29:04 05:33:21 47° 288° (WNW) 05:37:36 437.375
STRAND 1 02 Sep 05:34:35 05:36:35 13° 60° (ENE) 05:38:51 437.568
VERMONT LUNAR 02 Sep 05:54:01 05:56:59 70° 183° (S) 05:59:57 437.305
Cosmos 2499 02 Sep 06:02:33 06:10:09 33° 293° (WNW) 06:17:49 435.465 / 435.565
CUTE-I 02 Sep 06:24:39 06:28:59 26° 93° (E) 06:33:26 437.470
PRISM 02 Sep 06:35:27 06:38:53 27° 69° (ENE) 06:42:24 437.425
CUBESAT XI-V 02 Sep 06:46:17 06:50:36 39° 263° (W) 06:54:55 437.345
AO-7 02 Sep 06:59:36 07:06:02 25° 305° (NW) 07:12:14 29.400- 29.500
AIST 1 02 Sep 07:00:03 07:01:16 11° 85° (E) 07:02:45
PHONESAT 2.4 02 Sep 07:03:41 07:07:04 67° 173° (S) 07:10:27 2401.200-2431.200
STRAND 1 02 Sep 07:10:02 07:15:09 86° 256° (WSW) 07:20:17 437.568
Cubesat XI-IV 02 Sep 07:19:25 07:24:47 82° 102° (ESE) 07:30:08 437.490
VERMONT LUNAR 02 Sep 07:30:31 07:33:12 30° 200° (SSW) 07:35:52 437.305
YUBILEINY 02 Sep 07:38:20 07:46:37 44° 72° (ENE) 07:54:56 435.215
CUTE-I 02 Sep 08:04:15 08:09:14 41° 291° (WNW) 08:14:11 437.470
PRISM 02 Sep 08:10:57 08:14:19 24° 265° (W) 08:17:37 437.425
BRITE-PL 02 Sep 08:14:58 08:20:27 59° 99° (E) 08:26:05 437.365/2234.400
Cosmos 2491 02 Sep 08:26:54 08:34:49 42° 88° (E) 08:42:52 435.465 / 435.565
SO-50 02 Sep 08:32:10 08:36:00 22° 41° (NE) 08:39:52 436.795
AIST 1 02 Sep 08:34:16 08:38:27 57° 281° (W) 08:42:40
HO-68 02 Sep 08:35:46 08:41:51 30° 94° (E) 08:48:04 435.675
GOMX 1 02 Sep 08:36:19 08:41:43 56° 99° (E) 08:47:07 467.674
PHONESAT 2.4 02 Sep 08:41:29 08:44:52 63° 190° (S) 08:48:14 2401.200-2431.200
DOVE 4 02 Sep 08:42:42 08:47:41 40° 96° (E) 08:52:37 437.250
ISS 02 Sep 08:46:47 08:50:02 81° 142° (SE) 08:53:18 145.825
CUTE 1.7 + AOD 2 02 Sep 08:53:05 08:56:47 29° 95° (E) 09:00:29 437.475
PCSat 02 Sep 08:54:36 08:56:25 12° 34° (NE) 08:58:25 145.827
Cosmos 2504 02 Sep 08:57:45 09:03:12 19° 60° (ENE) 09:08:51 435.465 / 435.565
Cubesat XI-IV 02 Sep 09:01:25 09:04:16 14° 300° (WNW) 09:06:54 437.490
CANX-2 02 Sep 09:07:04 09:11:10 47° 99° (E) 09:15:14 2200.000
DANDE 02 Sep 09:08:20 09:08:32 10° 55° (NE) 09:09:22 436.750
CINEMA 3 02 Sep 09:17:07 09:21:43 37° 95° (E) 09:26:13 145.822/145.860
SEEDS 02 Sep 09:25:41 09:29:48 55° 99° (E) 09:33:53 437.485
UNISAT 6 02 Sep 09:27:39 09:30:47 18° 65° (ENE) 09:34:04 437.425
YUBILEINY 02 Sep 09:35:18 09:43:29 42° 272° (W) 09:51:27 435.215
Oscar 11 02 Sep 09:40:26 09:43:50 23° 93° (E) 09:47:19 145.826/435.025
COMPASS 1 02 Sep 09:44:54 09:49:03 72° 101° (E) 09:53:10 437.405
AAUSAT CUBESAT 2 02 Sep 09:53:41 09:57:49 76° 101° (ESE) 10:01:56 437.432
TIGRISAT 02 Sep 09:54:24 09:58:31 32° 69° (ENE) 10:02:43 435.000
BRITE-PL 02 Sep 09:54:26 09:58:34 21° 295° (WNW) 10:02:39 437.365/2234.400
AUBIESAT-1 02 Sep 10:00:12 10:04:37 41° 66° (ENE) 10:08:58 437.475
CUSAT 1 02 Sep 10:06:42 10:13:51 38° 70° (ENE) 10:21:26 437.405
DELFI C3 02 Sep 10:06:45 10:10:09 27° 95° (E) 10:13:36 145.870
M-CUBED/EXP-1 PRIME 02 Sep 10:06:50 10:11:31 56° 68° (ENE) 10:16:08 437.505
ANTELSAT 02 Sep 10:11:44 10:16:14 49° 72° (ENE) 10:20:49 437.575/2403.000
SO-50 02 Sep 10:12:05 10:16:58 60° 241° (WSW) 10:21:42 436.795
GOMX 1 02 Sep 10:15:19 10:19:26 22° 295° (WNW) 10:23:25 467.674
POLYITAN 1 02 Sep 10:17:56 10:21:04 20° 67° (ENE) 10:24:18 437.675
DUCHIFAT 1 02 Sep 10:18:57 10:21:57 19° 67° (ENE) 10:25:04 145.980
PHONESAT 2.4 02 Sep 10:19:38 10:22:26 24° 205° (SSW) 10:25:14 2401.200-2431.200
POPSAT HIP 1 02 Sep 10:19:52 10:22:59 21° 67° (ENE) 10:26:14 437.405
DOVE 4 02 Sep 10:20:44 10:25:14 28° 292° (WNW) 10:29:36 437.250
BUGSAT 1 02 Sep 10:20:52 10:22:28 12° 64° (ENE) 10:24:16 437.445
HO-68 02 Sep 10:22:57 10:29:56 54° 292° (WNW) 10:36:51 435.675
ISS 02 Sep 10:24:11 10:26:47 21° 342° (NNW) 10:29:21 145.825
ZACube-1 02 Sep 10:26:32 10:30:54 49° 99° (E) 10:35:09 437.345
CUTE 1.7 + AOD 2 02 Sep 10:29:10 10:32:35 23° 291° (WNW) 10:35:54 437.475
